Wind_Speed
3 3 4 5 6 7 7 7 7 7 8 9 9 10 11 12 12 12 12 12 12 12 12 12 12 12 12 12 12 13 13 14 14 14 14 14 14 14 14 14 14 14 13 13
5 6 6 7 8 8 8 9 9 10 10 12 12 12 13 13 14 14 14 14 15 14 14 14 14 14 14 14 13 13 14 14 14 15 14 14 14 14 14 14 14 13 13 13
8 9 10 9 9 10 10 10 11 12 13 14 14 15 15 16 16 16 16 16 16 16 16 16 16 16 15 15 15 15 15 15 15 15 15 15 14 14 14 14 13 13 13 12
11 11 11 11 11 12 12 12 13 14 15 16 17 17 17 18 18 18 19 19 18 19 18 18 18 17 18 18 17 16 17 16 16 16 16 16 15 14 14 14 14 13 13 13
14 14 14 13 13 14 14 14 15 16 18 19 19 19 19 19 20 20 21 21 21 21 21 20 20 20 19 20 19 18 18 18 17 17 17 17 16 15 15 15 14 14 14 14
16 16 16 15 16 16 17 17 18 20 20 21 21 21 21 21 22 22 23 23 23 23 23 23 22 22 21 21 20 20 20 19 19 18 18 18 17 17 16 16 15 15 14 14
18 19 18 18 18 19 20 20 21 22 22 23 23 23 23 23 24 24 24 25 25 25 25 25 25 24 24 23 23 22 21 21 21 20 20 19 19 18 18 17 17 16 16 15
21 21 21 21 21 22 22 23 23 23 24 25 25 26 26 26 26 27 27 27 27 27 28 28 27 27 26 26 25 24 24 23 23 23 22 21 21 20 20 19 18 18 17 16
23 24 24 24 24 25 25 26 26 27 27 27 28 28 29 29 29 29 29 29 29 30 30 30 30 30 29 28 28 27 27 26 26 26 25 24 23 23 22 21 20 19 19 18
26 26 27 27 28 28 28 29 29 30 30 30 30 30 31 31 31 31 31 32 31 31 32 32 32 32 32 31 31 30 30 29 28 28 27 27 26 25 24 24 22 21 21 20
29 30 30 31 31 31 32 32 32 32 33 33 33 33 33 32 32 32 32 32 33 33 33 32 33 33 33 33 32 32 31 30 30 30 30 29 29 28 27 26 25 24 23 22
32 32 33 33 34 34 35 35 35 35 35 35 35 35 34 34 34 34 34 35 35 35 35 34 34 34 35 35 35 34 34 33 33 32 32 31 31 30 29 28 28 27 25 24
36 36 36 36 36 37 37 37 38 37 37 37 37 36 36 36 36 36 37 37 37 37 37 37 36 36 37 37 36 36 36 35 35 35 34 34 33 32 31 30 30 29 28 27
38 38 38 38 38 38 38 39 39 39 39 39 39 39 39 39 40 39 39 39 39 40 40 39 39 39 39 39 38 38 38 37 37 36 36 36 35 35 34 33 32 31 30 30
40 40 40 41 41 41 40 40 40 40 40 41 41 41 42 42 42 42 42 41 41 42 42 42 42 41 41 40 39 39 39 38 38 37 37 37 37 37 36 35 34 34 33 32
43 43 43 43 43 43 43 42 42 42 42 43 43 43 44 44 44 45 45 44 43 43 43 43 43 42 42 41 40 39 39 39 39 39 38 38 38 38 38 37 37 36 35 34
45 44 45 45 45 45 45 44 44 44 44 45 45 45 45 45 45 45 46 46 45 44 44 44 44 43 43 42 41 40 39 39 40 40 40 39 39 39 39 38 38 38 37 36
46 46 47 47 47 46 46 46 46 46 46 46 46 46 46 46 46 46 47 47 46 45 44 45 45 44 43 42 41 40 40 39 40 40 41 40 40 40 39 39 39 39 39 39
48 48 48 48 48 48 47 47 47 47 47 47 48 48 47 47 47 47 47 47 46 46 44 44 44 43 42 41 41 40 40 39 38 39 40 40 40 40 40 40 40 40 40 40
48 49 48 48 48 48 48 48 48 48 48 48 49 49 48 48 47 47 47 46 46 45 44 42 42 42 42 42 41 41 40 40 39 39 39 40 40 41 40 40 40 40 40 40
48 49 49 49 49 49 49 49 48 48 49 50 50 49 49 48 47 47 46 45 44 44 43 42 41 41 41 42 42 42 41 40 40 39 40 40 40 41 41 41 41 40 40 40
48 48 49 50 50 49 49 50 50 50 50 50 50 50 49 48 47 46 45 44 43 43 43 42 42 42 41 42 42 42 41 41 40 40 41 41 41 42 42 42 42 41 41 41
47 48 49 49 49 49 49 50 50 50 51 50 50 50 49 48 47 46 44 43 43 43 43 43 42 42 41 41 41 42 42 42 42 42 41 41 41 42 42 43 43 42 42 41
46 47 47 47 47 48 49 49 50 50 50 49 49 49 49 48 47 46 45 44 44 43 43 43 43 42 41 41 42 42 42 42 42 42 42 42 42 42 43 43 43 42 41 41
45 45 45 45 45 46 48 48 49 49 48 47 47 46 46 46 46 45 45 44 44 44 43 43 42 42 42 42 42 43 43 43 43 42 42 42 41 41 42 42 42 41 40 40
45 44 44 44 45 45 46 46 46 46 45 45 45 44 44 44 44 44 44 44 43 43 43 42 42 42 42 42 42 42 42 42 42 41 41 41 40 39 39 40 40 40 39 39
44 44 44 44 44 44 44 44 43 43 42 42 42 42 42 43 43 42 42 42 42 41 41 41 41 40 40 40 40 41 41 40 39 39 38 38 38 38 39 39 39 39 39 38
Wind_Direction
274 272 274 275 274 277 278 278 276 278 280 280 280 282 283 284 284 283 282 279 277 277 280 282 282 282 281 283 286 289 291 294 297 301 305 309 313 317 321 325 328 331 334 338
273 274 275 277 275 274 276 278 279 278 279 280 283 284 284 283 284 283 282 281 281 279 279 280 282 283 282 282 283 287 289 291 293 295 298 303 309 313 316 318 322 325 329 333
278 279 281 284 284 282 282 280 278 278 279 281 282 283 283 283 283 283 282 281 280 280 279 278 279 281 283 284 283 285 286 288 290 292 294 297 302 307 310 312 315 319 323 326
281 282 282 284 283 282 282 283 280 280 280 282 282 281 281 281 282 282 282 281 280 280 279 278 277 278 280 281 283 284 284 285 286 289 291 293 297 301 304 306 309 313 316 318
279 280 283 286 285 282 282 283 283 281 282 284 285 285 283 282 281 282 282 281 280 279 278 277 277 276 277 278 279 281 283 283 285 287 289 291 293 296 298 301 303 306 310 312
279 279 282 285 284 283 282 283 283 283 284 285 286 286 286 284 282 282 281 280 279 278 278 276 275 274 274 275 276 278 280 281 282 283 285 288 290 291 293 296 298 300 303 306
278 279 280 282 282 283 282 284 283 284 285 285 286 286 285 284 283 282 280 279 278 277 276 275 273 273 272 273 273 275 276 277 278 279 281 283 285 286 288 290 292 294 296 298
278 278 279 281 282 282 283 283 285 285 285 285 285 285 284 282 281 280 279 278 277 276 275 274 273 272 272 272 273 274 273 273 275 276 277 278 279 281 282 285 287 289 290 291
277 277 278 278 280 281 282 283 284 284 283 282 282 282 281 280 279 278 278 277 277 275 274 274 272 272 270 270 270 272 273 272 272 273 274 275 275 276 278 279 281 283 285 286
276 277 277 278 279 280 282 284 284 283 282 282 282 281 281 280 279 278 277 278 278 277 275 274 273 272 271 269 269 268 270 270 270 270 271 272 273 273 274 275 277 278 279 281
276 276 277 278 279 280 282 283 283 283 283 282 282 281 281 281 279 278 278 278 278 278 276 275 274 273 272 271 270 269 269 269 267 267 268 269 270 270 270 271 272 273 274 276
276 277 277 278 280 282 282 283 283 283 283 284 283 282 281 281 280 279 279 278 278 278 277 276 274 273 272 271 270 269 268 268 268 266 266 266 267 267 268 268 268 269 270 271
276 277 278 279 279 280 282 282 283 283 283 283 283 283 282 281 281 280 279 278 278 278 278 277 276 274 272 271 269 268 268 267 267 267 266 265 265 265 265 265 266 266 267 268
276 278 279 279 279 280 281 281 282 282 282 282 281 281 282 281 281 280 280 278 278 278 277 277 276 274 272 270 270 268 267 267 266 266 266 264 263 263 263 263 263 264 265 266
276 277 278 278 279 279 280 280 280 281 281 281 281 281 281 281 281 280 280 279 278 277 277 276 276 275 273 271 270 269 267 266 265 265 265 264 263 262 261 261 261 261 262 263
277 278 278 278 279 280 280 279 279 279 280 280 281 281 281 281 281 280 280 280 279 278 276 276 276 275 274 272 270 268 267 266 265 264 264 264 263 262 261 261 261 260 260 260
277 278 278 278 279 279 280 279 279 279 279 280 280 281 281 281 280 280 280 279 279 278 276 275 275 274 272 271 269 268 267 265 264 263 262 262 262 261 261 260 260 259 259 259
277 277 277 277 278 278 279 279 279 279 279 279 280 280 281 281 281 280 280 279 278 277 276 275 275 273 272 270 269 267 265 264 263 262 261 260 260 260 260 260 260 259 258 258
276 277 278 278 278 278 278 278 278 279 279 279 279 280 280 281 281 281 280 279 277 276 275 274 272 271 270 268 267 266 265 264 263 262 262 260 260 260 260 260 260 259 259 258
277 277 278 279 278 278 278 278 279 279 279 280 280 281 281 281 281 281 280 278 277 275 273 272 270 269 269 268 267 265 265 265 264 262 261 260 260 260 260 260 261 260 260 259
278 278 278 278 278 278 278 279 279 279 279 279 280 281 281 281 280 280 279 278 277 275 272 270 269 268 268 268 267 266 265 264 263 262 261 259 259 259 259 260 260 261 260 259
278 278 278 279 278 278 278 279 279 279 280 280 280 281 281 280 279 279 278 277 276 275 273 270 268 267 267 268 267 265 264 263 263 262 261 260 260 260 259 259 259 259 259 259
278 278 279 279 278 277 278 278 279 280 280 280 280 280 280 279 279 278 277 276 276 275 274 271 269 267 266 265 265 265 264 263 262 262 261 261 260 260 259 260 260 259 259 258
280 280 280 279 279 278 278 279 279 280 280 280 280 279 279 278 278 278 277 276 275 275 274 273 269 266 265 264 264 264 264 263 262 261 261 260 260 259 258 258 259 258 258 258
281 281 281 281 281 280 280 280 280 280 280 280 279 279 279 279 278 276 276 275 275 274 274 273 271 268 266 265 264 264 263 262 261 261 260 260 259 258 257 257 257 257 256 256
280 281 281 282 282 282 281 281 281 281 280 279 279 279 279 279 279 278 277 276 275 274 273 272 270 268 266 265 264 263 262 261 260 259 259 258 257 257 256 255 255 255 254 254
279 280 281 282 283 283 282 283 283 283 282 281 280 279 278 278 279 279 278 277 275 273 272 271 269 267 266 265 264 263 262 260 258 256 256 256 256 255 254 254 255 254 253 252
Height
5813 5813 5813 5813 5813 5813 5813 5813 5814 5815 5814 5814 5813 5813 5813 5812 5812 5811 5811 5810 5810 5809 5808 5808 5807 5806 5806 5805 5804 5803 5803 5802 5801 5800 5798 5797 5795 5792 5790 5788 5785 5783 5781 5778
5811 5811 5811 5811 5811 5811 5811 5811 5811 5811 5811 5811 5810 5810 5809 5809 5808 5807 5807 5806 5806 5805 5804 5804 5803 5803 5802 5801 5801 5800 5799 5798 5797 5796 5795 5794 5792 5790 5788 5786 5784 5781 5779 5777
5809 5809 5809 5809 5809 5808 5808 5808 5808 5808 5808 5807 5807 5806 5805 5805 5804 5803 5802 5802 5801 5801 5800 5800 5799 5799 5798 5797 5797 5796 5795 5795 5794 5793 5792 5790 5789 5787 5785 5783 5781 5779 5777 5775
5806 5806 5806 5808 5805 5805 5805 5804 5804 5804 5803 5803 5802 5802 5801 5800 5799 5798 5797 5797 5796 5796 5795 5795 5794 5794 5793 5793 5792 5792 5791 5790 5790 5789 5788 5786 5785 5784 5782 5780 5779 5777 5775 5773
5802 5801 5802 5802 5801 5801 5800 5800 5800 5799 5798 5797 5797 5796 5796 5795 5794 5793 5792 5791 5791 5790 5790 5790 5789 5789 5788 5788 5787 5787 5786 5786 5785 5784 5783 5782 5781 5780 5779 5777 5775 5774 5772 5770
5797 5796 5797 5798 5797 5796 5796 5795 5795 5793 5793 5792 5791 5791 5791 5789 5788 5786 5785 5785 5784 5784 5783 5783 5783 5783 5782 5782 5782 5782 5781 5781 5780 5779 5779 5778 5777 5776 5775 5773 5772 5770 5769 5767
5791 5791 5791 5792 5791 5791 5791 5791 5789 5787 5786 5785 5784 5784 5783 5782 5781 5780 5779 5778 5777 5776 5776 5776 5776 5776 5776 5775 5775 5775 5775 5775 5774 5774 5773 5772 5772 5771 5770 5769 5768 5766 5765 5764
5785 5785 5787 5785 5784 5784 5784 5782 5782 5780 5779 5778 5777 5776 5775 5774 5773 5772 5771 5770 5769 5769 5768 5768 5768 5768 5768 5768 5768 5768 5768 5768 5768 5767 5767 5766 5766 5765 5765 5764 5763 5762 5761 5760
5779 5780 5778 5777 5776 5776 5775 5775 5774 5772 5771 5770 5769 5768 5767 5765 5764 5763 5762 5762 5761 5760 5760 5759 5759 5759 5760 5760 5760 5760 5760 5760 5760 5760 5760 5760 5759 5759 5759 5758 5758 5757 5756 5755
5770 5770 5769 5769 5768 5767 5767 5766 5764 5763 5762 5761 5760 5758 5757 5756 5755 5754 5753 5752 5752 5751 5750 5750 5749 5749 5750 5750 5751 5751 5751 5751 5751 5751 5751 5752 5752 5752 5752 5751 5751 5751 5750 5749
5762 5762 5760 5760 5759 5758 5757 5756 5755 5753 5752 5750 5749 5748 5747 5746 5745 5744 5744 5743 5742 5741 5740 5740 5739 5739 5739 5740 5740 5741 5741 5741 5741 5742 5742 5742 5743 5743 5743 5744 5744 5744 5743 5743
5752 5752 5751 5751 5749 5748 5747 5745 5744 5743 5742 5740 5738 5737 5736 5735 5734 5733 5733 5732 5731 5730 5729 5729 5728 5728 5728 5729 5729 5730 5731 5731 5731 5731 5732 5732 5733 5734 5734 5735 5735 5735 5736 5736
5741 5741 5740 5740 5739 5737 5736 5734 5733 5731 5730 5729 5728 5726 5725 5724 5723 5722 5721 5720 5719 5718 5718 5717 5717 5716 5716 5717 5717 5718 5719 5719 5720 5720 5721 5722 5722 5723 5724 5725 5725 5726 5727 5727
5730 5729 5729 5728 5727 5726 5724 5723 5721 5720 5719 5717 5716 5715 5713 5712 5711 5710 5709 5708 5707 5706 5706 5705 5705 5704 5704 5704 5704 5705 5706 5706 5707 5708 5709 5710 5711 5712 5713 5714 5715 5716 5717 5717
5718 5717 5716 5716 5714 5713 5712 5710 5709 5708 5707 5705 5704 5703 5701 5700 5698 5697 5696 5694 5693 5693 5692 5692 5691 5691 5690 5690 5691 5691 5692 5693 5694 5695 5696 5697 5698 5700 5701 5702 5704 5705 5706 5707
5704 5704 5703 5702 5701 5700 5699 5697 5697 5696 5694 5693 5691 5690 5688 5686 5685 5683 5682 5681 5679 5679 5678 5678 5677 5677 5676 5676 5676 5677 5678 5679 5680 5682 5683 5684 5686 5687 5689 5690 5692 5693 5695 5696
5691 5690 5689 5688 5687 5686 5685 5684 5683 5682 5681 5679 5678 5676 5674 5672 5671 5669 5668 5666 5665 5664 5663 5663 5663 5662 5662 5661 5662 5663 5664 5665 5666 5667 5669 5670 5672 5674 5675 5677 5679 5681 5683 5684
5676 5676 5675 5674 5673 5672 5671 5670 5668 5667 5666 5665 5663 5661 5660 5658 5656 5654 5653 5651 5650 5649 5648 5648 5647 5647 5647 5647 5648 5648 5649 5650 5651 5653 5654 5656 5658 5660 5662 5664 5666 5668 5669 5671
5662 5661 5660 5659 5658 5657 5656 5655 5654 5652 5651 5649 5648 5646 5645 5642 5640 5639 5637 5636 5635 5634 5633 5632 5632 5632 5632 5633 5634 5634 5635 5636 5638 5639 5640 5642 5644 5646 5648 5650 5652 5654 5656 5658
5647 5646 5645 5644 5643 5641 5640 5639 5638 5637 5635 5634 5632 5631 5629 5627 5625 5623 5622 5620 5619 5618 5618 5617 5617 5618 5619 5619 5620 5621 5622 5623 5624 5626 5627 5629 5631 5633 5634 5636 5638 5640 5642 5644
5632 5631 5629 5628 5627 5626 5625 5624 5623 5621 5620 5618 5617 5615 5614 5612 5610 5608 5606 5606 5605 5603 5603 5603 5603 5604 5604 5605 5606 5607 5608 5609 5610 5612 5613 5615 5617 5619 5621 5622 5624 5626 5628 5630
5616 5615 5614 5613 5612 5611 5609 5608 5607 5606 5604 5603 5601 5599 5597 5596 5595 5593 5592 5591 5591 5589 5588 5588 5589 5589 5590 5591 5592 5593 5594 5596 5597 5598 5600 5601 5603 5605 5607 5608 5610 5612 5614 5616
5601 5600 5599 5597 5596 5595 5594 5592 5591 5589 5588 5587 5585 5583 5582 5580 5579 5578 5578 5577 5576 5575 5574 5574 5575 5575 5576 5577 5578 5579 5581 5582 5583 5584 5586 5587 5589 5591 5593 5594 5596 5598 5600 5602
5587 5585 5584 5582 5581 5580 5579 5577 5575 5573 5572 5570 5569 5567 5566 5565 5564 5563 5562 5562 5561 5560 5560 5560 5560 5560 5561 5562 5564 5565 5566 5568 5569 5570 5571 5573 5574 5576 5578 5580 5582 5584 5586 5589
5572 5570 5569 5567 5566 5565 5563 5561 5560 5558 5556 5555 5553 5552 5550 5549 5548 5548 5547 5546 5546 5545 5545 5545 5545 5546 5546 5548 5549 5551 5552 5553 5554 5555 5557 5558 5561 5562 5564 5566 5568 5570 5573 5575
5558 5556 5555 5553 5552 5550 5548 5546 5544 5543 5541 5540 5539 5537 5536 5534 5533 5532 5531 5531 5531 5530 5530 5530 5531 5531 5532 5533 5535 5536 5537 5538 5540 5541 5543 5544 5546 5548 5550 5552 5555 5557 5560 5562
5544 5543 5541 5540 5538 5536 5534 5532 5530 5529 5527 5525 5525 5523 5522 5520 5519 5518 5517 5516 5516 5516 5516 5516 5516 5517 5518 5519 5520 5521 5523 5524 5526 5528 5529 5531 5533 5535 5537 5540 5542 5544 5547 5549